Location: Unspecified
(0.0000°N, 0.0000°E)
Time: 04:30:09
(UTC+00:00)

CANX-2 - Pass Details

Date: 20 May 2026
Orbit: 542 x 558 km, 97.9° (Epoch: 11 June)

Event Time Altitude Azimuth Distance (km) Brightness Sun altitude
Rises 04:52:31 0° 339° (NNW) 2,684 ? -15.0°
Reaches altitude 10° 04:55:31 10° 313° (NW) 1,798 ? -14.3°
Enters shadow 04:56:45 13° 295° (WNW) 1,604 ? -14.0°
